Regional Weather Roundup
Issued by NWS

Home | Current Version | Previous Version | Graphics & Text | Print | Product List | Glossary On
Versions: 1 2 3 4 5 6 7 8 9 10 11 12 13 14 15 16 17 18 19 20 21 22 23 24 25 26 27 28 29 30 31 32 33 34 35 36 37 38 39 40 41 42 43 44 45 46 47 48 49 50
000
ASUS45 KCYS 291010
RWRWY

WYOMING REGIONAL WEATHER ROUNDUP
NATIONAL WEATHER SERVICE CHEYENNE WY
400 AM MDT FRI APR 29 2016

NOTE:  "FAIR" INDICATES FEW OR NO CLOUDS BELOW 12,000 FEET
WITH NO SIGNIFICANT WEATHER AND/OR OBSTRUCTIONS TO VISIBILITY.

WYZ001-291100-
YELLOWSTONE NATIONAL PARK

CITY           SKY/WX    TMP DP  RH WIND       PRES   REMARKS
LK YELLOWSTONE   N/A     24  20  84 CALM      29.94F
W YELLOWSTONE  NOT AVBL

$$
WYZ002>013-054>058-071-098>099-291100-
NORTHERN WYOMING

CITY           SKY/WX    TMP DP  RH WIND       PRES   REMARKS
JACKSON        CLOUDY    34  32  93 N8        29.92F WCI  27
CODY           CLOUDY    34  30  86 CALM      29.99S
GREYBULL       CLOUDY    41  31  67 E5        30.00F
WORLAND        CLOUDY    39  30  70 SE8       30.00F WCI  33
SHERIDAN       CLOUDY    36  33  89 SW6       30.04F WCI  31
BUFFALO          N/A    N/A N/A N/A MISG      30.05R
GILLETTE       CLOUDY    35  32  88 SE6       30.05F WCI  30
HULETT         CLOUDY    34  34 100 SW3       30.09R
NEWCASTLE      CLOUDY    34  34 100 S5        30.10S WCI  30

$$
WYZ014>020-022>026-101>103-291100-
CENTRAL WYOMING

CITY           SKY/WX    TMP DP  RH WIND       PRES   REMARKS
BIG PINEY      CLOUDY    30  24  78 SW9       29.95R WCI  22
PINEDALE       FAIR      28  27  93 SW3       29.95R
DUBOIS         CLOUDY    27  25  93 CALM      29.95F
LANDER         CLOUDY    33  27  78 CALM      29.98F
RIVERTON       CLOUDY    33  27  78 NE6       30.00F WCI  28
CASPER         CLOUDY    32  29  88 E12       30.00F WCI  23
DOUGLAS        CLOUDY    33  32  96 E7        30.04F WCI  27

$$
WYZ021-027>030-104>119-291100-
SOUTHERN WYOMING

CITY           SKY/WX    TMP DP  RH WIND       PRES   REMARKS
EVANSTON       LGT SNOW  30  26  85 E12       29.90S FOG     WCI  20
FORT BRIDGER   CLOUDY    30  30 100 E12       29.95S WCI  21
ROCK SPRINGS   CLOUDY    31  26  82 NE13      29.94S WCI  21
DIXON          CLOUDY    35  32  91 CALM      29.90S
RAWLINS        CLOUDY    31  28  89 E13G20    29.93F WCI  21
SARATOGA       FAIR      27  27 100 W10       29.91S WCI  17
LARAMIE        CLOUDY    30  28  92 SE15      29.96R WCI  19
CHEYENNE       CLOUDY    32  30  92 SE13      30.01R FOG     WCI  22
TORRINGTON     CLOUDY    34  33  96 SE6       30.07R WCI  29
PINE BLUFFS    CLOUDY    32  32 100 E6        30.06S FOG     WCI  26

$$



USA.gov is the U.S. government's official web portal to all federal, state and local government web resources and services.